Weather History for KADW - December, 2012

Change the Weather History Date:

Tuesday, December 4, 2012

  Actual Average Record
Temperature  
Mean Temperature 62 °F -  
Max Temperature 71 °F 49 °F 73 °F (1998)
Min Temperature 52 °F 31 °F 15 °F (2002)
Degree Days  
Heating Degree Days 4    
Growing Degree Days 12 (Base 50)    
Moisture  
Dew Point 51 °F    
Average Humidity 70    
Maximum Humidity 94    
Minimum Humidity 48    
Precipitation  
Precipitation 0.00 in - - ()
Sea Level Pressure  
Sea Level Pressure 30.16 in    
Wind  
Wind Speed 7 mph (South)    
Max Wind Speed 15 mph    
Max Gust Speed -    
Visibility 10 miles    
Events      
Averages and records for this station are not official NWS values.
T = Trace of Precipitation, MM = Missing Value Source: NWS Daily Summary

Daily Weather History Graph

Daily Weather History Graph

Search for Another Location

Airport or City:

Trip Planner

Search our weather history database for the weather conditions in past years. The results will help you decide how hot, cold, wet, or windy it might be!

Date:

Astronomy

Dec. 04, 2012 Rise Set
Actual Time 7:10 AM EST 4:45 PM EST
Civil Twilight 6:40 AM EST 5:15 PM EST
Nautical Twilight 6:07 AM EST 5:48 PM EST
Astronomical Twilight 5:35 AM EST 6:20 PM EST
Moon 10:28 PM EST (12/4) 11:05 AM EST (12/4)
Length of Visible Light 10h 34m
Length of Day
9h 35m
Waning Gibbous, 69% of the Moon is Illuminated
Dec 4
Waning Gibbous
Dec 6
Last Quarter
Dec 13
New
Dec 20
First Quarter
Dec 28
Full

Hourly Weather History & Observations

Time (EST) Temp. Dew Point Humidity Pressure Visibility Wind Dir Wind Speed Gust Speed Precip Events Conditions
12:55 AM 55.2 °F 50.5 °F 84% 30.23 in 10.0 mi South 5.8 mph - N/A   Clear
1:55 AM 52.0 °F 50.2 °F 94% 30.24 in 10.0 mi South 5.8 mph - N/A   Clear
2:55 AM 54.9 °F 51.3 °F 88% 30.23 in 10.0 mi South 5.8 mph - N/A   Overcast
3:55 AM 55.6 °F 52.0 °F 88% 30.22 in 10.0 mi South 5.8 mph - N/A   Overcast
4:55 AM 55.0 °F 51.3 °F 87% 30.23 in 10.0 mi South 4.6 mph - N/A   Overcast
5:55 AM 55.4 °F 52.0 °F 88% 30.23 in 10.0 mi South 4.6 mph - N/A   Overcast
6:55 AM 54.9 °F 51.6 °F 89% 30.23 in 10.0 mi South 4.6 mph - N/A   Overcast
7:55 AM 55.6 °F 52.3 °F 89% 30.24 in 10.0 mi South 5.8 mph - N/A   Overcast
8:55 AM 57.4 °F 52.7 °F 84% 30.25 in 10.0 mi SSW 4.6 mph - N/A   Overcast
9:55 AM 60.3 °F 53.6 °F 79% 30.25 in 10.0 mi SSW 6.9 mph - N/A   Overcast
10:55 AM 63.1 °F 53.6 °F 71% 30.23 in 10.0 mi South 5.8 mph - N/A   Scattered Clouds
11:55 AM 67.8 °F 53.2 °F 60% 30.19 in 10.0 mi Variable 5.8 mph - N/A   Clear
12:55 PM 71.2 °F 51.8 °F 50% 30.16 in 10.0 mi SSW 11.5 mph - N/A   Clear
1:55 PM 71.2 °F 51.6 °F 50% 30.13 in 10.0 mi South 12.7 mph - N/A   Clear
2:55 PM 70.7 °F 50.2 °F 48% 30.12 in 10.0 mi SSW 12.7 mph - N/A   Clear
3:55 PM 68.9 °F 49.3 °F 50% 30.11 in 10.0 mi South 15.0 mph - N/A   Clear
4:55 PM 64.9 °F 49.5 °F 57% 30.11 in 10.0 mi South 5.8 mph - N/A   Clear
5:55 PM 61.9 °F 48.9 °F 62% 30.11 in 10.0 mi South 6.9 mph - N/A   Clear
6:55 PM 60.6 °F 49.1 °F 66% 30.10 in 10.0 mi South 8.1 mph - N/A   Clear
7:55 PM 60.1 °F 49.3 °F 67% 30.09 in 10.0 mi South 9.2 mph - N/A   Partly Cloudy
8:55 PM 64.6 °F 49.3 °F 58% 30.08 in 10.0 mi SW 12.7 mph - N/A   Overcast
9:55 PM 63.9 °F 48.9 °F 58% 30.07 in 10.0 mi SSW 11.5 mph - N/A   Overcast
10:55 PM 62.1 °F 48.2 °F 60% 30.05 in 10.0 mi SSW 12.7 mph - N/A   Partly Cloudy
11:55 PM 62.4 °F 47.7 °F 58% 30.03 in 10.0 mi SSW 11.5 mph - N/A   Mostly Cloudy